Regional Weather Roundup
Issued by NWS Kansas City/Pleasant Hill, MO

Home | Current Version | Previous Version | Text Only | Print | Product List | Glossary On
Versions: 1 2 3 4 5 6 7 8 9 10 11 12 13 14 15 16 17 18 19 20 21 22 23 24 25 26 27 28
000
ASUS43 KEAX 230610
RWREAX

WEATHER ROUNDUP FOR EASTERN KANSAS AND NORTHWEST MISSOURI
NATIONAL WEATHER SERVICE KANSAS CITY/PLEASANT HILL MO
1200 AM CST TUE JAN 23 2018

KSZ040-057-103>105-MOZ028-029-037-043-230700-
...KANSAS CITY METROPOLITAN AREA...

CITY           SKY/WX    TMP DP  RH WIND       PRES   REMARKS
K.C. INTL      CLOUDY    31  26  82 NW17G26   29.83R WCI  19
6HR MIN TEMP:  30; 6HR MAX TEMP:  33; 6HR PCP:  0.01;

K.C. DOWNTOWN  CLOUDY    33  25  72 NW18G29   29.84R WCI  22
6HR MIN TEMP:  32; 6HR MAX TEMP:  35; 6HR PCP: TRACE;

LEES SUMMIT    CLOUDY    31  27  85 NW21G31   29.82R WCI  18
6HR MIN TEMP:  31; 6HR MAX TEMP:  34; 6HR PCP: TRACE;

OLATHE - IXD   CLOUDY    30  26  85 NW18G26   29.88R WCI  18
6HR MIN TEMP:  30; 6HR MAX TEMP:  31;

OLATHE - OJC   CLOUDY    29  25  85 NW18G28   29.85R WCI  16
6HR MIN TEMP:  29; 6HR MAX TEMP:  31; 6HR PCP: TRACE;

LAWRENCE       CLOUDY    32  26  78 W25G33    29.90R WCI  19

$$

MOZ001>008-011>017-020>025-030>033-038>040-044>046-053-054-230700-
...NORTHERN AND CENTRAL MISSOURI...

CITY           SKY/WX    TMP DP  RH WIND       PRES   REMARKS
ST. JOSEPH     CLOUDY    32  28  85 NW21G31   29.85R WCI  20
6HR MIN TEMP:  31; 6HR MAX TEMP:  34; 6HR PCP: TRACE;

MOSBY          FLURRIES  32  28  86 NW15G26   29.81R WCI  22
WARRENSBURG    CLOUDY    32  28  86 W21G28    29.80R WCI  20
WHITEMAN AFB   CLOUDY    33  27  77 NW17G28   29.74R WCI  23
6HR MIN TEMP:  32; 6HR MAX TEMP:  34; 6HR PCP: TRACE;

CLINTON        CLOUDY    32  28  86 W14G23    29.83R WCI  22
SEDALIA        FLURRIES  34  32  92 W23G30    29.76R WCI  22
6HR MIN TEMP:  33; 6HR MAX TEMP:  37; 6HR PCP: TRACE;

WARSAW         NOT AVBL
CHILLICOTHE      N/A     33  28  81 NW17G26   29.73R WCI  22
6HR MIN TEMP:  33; 6HR MAX TEMP:  37;

KIRKSVILLE     CLOUDY    35  34  96 NW16G23   29.62R WCI  25
6HR MIN TEMP:  33; 6HR MAX TEMP:  36; 6HR PCP:  0.01;


$$

MOZ041-047>049-056>058-063>065-088>090-097-230700-
...EASTERN AND SOUTHERN MISSOURI...

CITY           SKY/WX    TMP DP  RH WIND       PRES   REMARKS
ST. LOUIS INTL FLURRIES  36  30  79 W22G28    29.64R WCI  25
6HR MIN TEMP:  36; 6HR MAX TEMP:  46; 6HR PCP: TRACE;

SPIRIT OF STL  FLURRIES  36  30  79 SW17G28   29.64R WCI  26
COLUMBIA       CLOUDY    34  32  92 W20G28    29.67R WCI  23
JEFFERSON CITY CLOUDY    36  31  82 W23G35    29.71R WCI  24
ROLLA          CLOUDY    33  29  85 W20G33    29.70R WCI  21
OSAGE BEACH    CLOUDY    34  29  82 W13G24    29.77R WCI  25
SPRINGFIELD    CLOUDY    33  27  78 W15G28    29.84R WCI  23
BRANSON        CLOUDY    36  27  69 W13G32    29.87R WCI  27
JOPLIN         CLOUDY    34  27  75 NW16G31   29.93R WCI  24
WEST PLAINS    CLOUDY    36  28  73 W16G28    29.79R WCI  26

$$

IAZ060-094-KSZ022-034>040-054-083-096-NEZ052-066-093-230700-
...KANSAS...SOUTHEAST NEBRASKA AND IOWA...

CITY           SKY/WX    TMP DP  RH WIND       PRES   REMARKS
TOPEKA         CLOUDY    31  26  82 NW17G32   29.93R WCI  19
6HR MIN TEMP:  31; 6HR MAX TEMP:  32; 6HR PCP:  0.03;

MANHATTAN      CLOUDY    28  22  78 NW9       29.97R WCI  19
EMPORIA        PTCLDY    30  23  75 NW15G28   29.95R WCI  19
WICHITA        CLEAR     32  23  69 NW15      30.02R WCI  22
OMAHA          CLOUDY    30  26  85 NW22G33   29.91R WCI  17
LINCOLN        MIX PCPN  26  22  84 N17G25    29.97R WCI  13
FALLS CITY     CLOUDY    29  25  85 NW24G38   29.88R WCI  15
LAMONI         CLOUDY    30  25  81 NW26G35   29.71R WCI  16
DES MOINES     FLURRIES  30  26  85 N17G30    29.70R WCI  18

$$





USA.gov is the U.S. government's official web portal to all federal, state and local government web resources and services.